Weather History for Corvallis, OR

Change the Weather History Date:

Wednesday, April 17, 2013

  Actual Average Record
Temperature  
Mean Temperature 46 °F -  
Max Temperature 60 °F 60 °F 73 °F (1999)
Min Temperature 33 °F 40 °F 33 °F (2013)
Degree Days  
Heating Degree Days 18    
Moisture  
Dew Point 39 °F    
Average Humidity 75    
Maximum Humidity 100    
Minimum Humidity 48    
Precipitation  
Precipitation 0.00 in - - ()
Sea Level Pressure  
Sea Level Pressure 30.47 in    
Wind  
Wind Speed 5 mph (WSW)    
Max Wind Speed 12 mph    
Max Gust Speed -    
Visibility 10 miles    
Events      
Averages and records for this station are not official NWS values.
T = Trace of Precipitation, MM = Missing Value Source: NWS Daily Summary

Daily Weather History Graph

Daily Weather History Graph

Search for Another Location

Airport:

Trip Planner

Search our weather history database for the weather conditions in past years. The results will help you decide how hot, cold, wet, or windy it might be!

Date:

Astronomy

Apr. 17, 2013 Rise Set
Actual Time 6:25 AM PDT 8:00 PM PDT
Civil Twilight 5:54 AM PDT 8:31 PM PDT
Nautical Twilight 5:17 AM PDT 9:08 PM PDT
Astronomical Twilight 4:37 AM PDT 9:48 PM PDT
Moon 11:40 AM PDT (4/17) 1:47 AM PDT (4/17)
Length of Visible Light 14h 36m
Length of Day
13h 35m
Waxing Crescent, 43% of the Moon is Illuminated
Apr 17
Waxing Crescent
Apr 18
First Quarter
Apr 25
Full
May 2
Last Quarter
May 9
New

Hourly Weather History & Observations

Time (PDT) Temp. Windchill Dew Point Humidity Pressure Visibility Wind Dir Wind Speed Gust Speed Precip Events Conditions
12:15 AM 42.8 °F 40.1 °F 39.2 °F 87% 30.42 in 10.0 mi West 4.6 mph - N/A   Overcast
12:35 AM 42.8 °F 38.0 °F 41.0 °F 93% 30.42 in 10.0 mi West 8.1 mph - N/A   Overcast
12:55 AM 42.8 °F 38.6 °F 39.2 °F 87% 30.42 in 10.0 mi West 6.9 mph - N/A   Mostly Cloudy
1:15 AM 41.0 °F 37.1 °F 39.2 °F 93% 30.42 in 10.0 mi West 5.8 mph - N/A   Partly Cloudy
1:35 AM 41.0 °F 38.0 °F 37.4 °F 87% 30.43 in 10.0 mi West 4.6 mph - N/A   Partly Cloudy
1:55 AM 41.0 °F 38.0 °F 37.4 °F 87% 30.43 in 10.0 mi West 4.6 mph - N/A   Clear
2:15 AM 39.2 °F 35.9 °F 37.4 °F 93% 30.43 in 10.0 mi West 4.6 mph - N/A   Clear
2:35 AM 39.2 °F - 37.4 °F 93% 30.43 in 10.0 mi Calm Calm - N/A   Clear
2:55 AM 37.4 °F 34.9 °F 35.6 °F 93% 30.43 in 10.0 mi SW 3.5 mph - N/A   Clear
3:15 AM 35.6 °F 32.8 °F 33.8 °F 93% 30.43 in 10.0 mi South 3.5 mph - N/A   Clear
3:35 AM 35.6 °F 31.7 °F 33.8 °F 93% 30.43 in 10.0 mi South 4.6 mph - N/A   Clear
3:55 AM 35.6 °F 31.7 °F 33.8 °F 93% 30.44 in 10.0 mi SW 4.6 mph - N/A   Clear
4:15 AM 35.6 °F 32.8 °F 33.8 °F 93% 30.44 in 10.0 mi WSW 3.5 mph - N/A   Clear
4:35 AM 35.6 °F - 33.8 °F 93% 30.44 in 10.0 mi Calm Calm - N/A   Clear
4:55 AM 35.6 °F - 33.8 °F 93% 30.44 in 10.0 mi Calm Calm - N/A   Clear
5:15 AM 33.8 °F 30.8 °F 32.0 °F 93% 30.45 in 10.0 mi SSE 3.5 mph - N/A   Clear
5:35 AM 33.8 °F 29.6 °F 30.2 °F 87% 30.45 in 10.0 mi SE 4.6 mph - N/A   Clear
5:55 AM 33.8 °F 28.6 °F 32.0 °F 93% 30.46 in 10.0 mi SSE 5.8 mph - N/A   Clear
6:15 AM 33.8 °F 27.7 °F 32.0 °F 93% 30.46 in 10.0 mi South 6.9 mph - N/A   Clear
6:35 AM 35.6 °F 32.8 °F 35.6 °F 100% 30.47 in 10.0 mi South 3.5 mph - N/A   Clear
7:15 AM 35.6 °F - 33.8 °F 93% 30.48 in 10.0 mi Calm Calm - N/A   Scattered Clouds
7:35 AM 35.6 °F - 35.6 °F 100% 30.49 in 10.0 mi Calm Calm - N/A   Mostly Cloudy
7:55 AM 37.4 °F - 35.6 °F 93% 30.50 in 10.0 mi Calm Calm - N/A   Overcast
8:15 AM 39.2 °F - 37.4 °F 93% 30.50 in 10.0 mi Calm Calm - N/A   Mostly Cloudy
8:35 AM 41.0 °F - 37.4 °F 87% 30.51 in 10.0 mi Calm Calm - N/A   Mostly Cloudy
8:55 AM 42.8 °F - 39.2 °F 87% 30.51 in 10.0 mi Calm Calm - N/A   Mostly Cloudy
9:15 AM 44.6 °F - 41.0 °F 87% 30.52 in 10.0 mi Calm Calm - N/A   Scattered Clouds
9:35 AM 46.4 °F 44.3 °F 41.0 °F 81% 30.51 in 10.0 mi SSE 4.6 mph - N/A   Partly Cloudy
9:55 AM 48.2 °F - 42.8 °F 82% 30.52 in 10.0 mi South 6.9 mph - N/A   Clear
10:15 AM 50.0 °F - 42.8 °F 76% 30.52 in 10.0 mi ESE 3.5 mph - N/A   Partly Cloudy
10:35 AM 51.8 °F - 42.8 °F 71% 30.52 in 10.0 mi SE 5.8 mph - N/A   Mostly Cloudy
10:55 AM 53.6 °F - 41.0 °F 62% 30.51 in 10.0 mi South 3.5 mph - N/A   Overcast
11:15 AM 51.8 °F - 39.2 °F 62% 30.52 in 10.0 mi Calm Calm - N/A   Overcast
11:35 AM 53.6 °F - 41.0 °F 62% 30.52 in 10.0 mi East 4.6 mph - N/A   Overcast
11:55 AM 55.4 °F - 41.0 °F 58% 30.51 in 10.0 mi East 4.6 mph - N/A   Mostly Cloudy
12:15 PM 55.4 °F - 42.8 °F 63% 30.51 in 10.0 mi Calm Calm - N/A   Scattered Clouds
12:35 PM 55.4 °F - 41.0 °F 58% 30.51 in 10.0 mi SE 4.6 mph - N/A   Partly Cloudy
12:55 PM 57.2 °F - 44.6 °F 63% 30.50 in 10.0 mi Calm Calm - N/A   Clear
1:35 PM 60.8 °F - 44.6 °F 55% 30.49 in 10.0 mi SSE 3.5 mph - N/A   Clear
1:55 PM 60.8 °F - 44.6 °F 55% 30.48 in 10.0 mi South 4.6 mph - N/A   Clear
2:15 PM 60.8 °F - 44.6 °F 55% 30.48 in 10.0 mi SSE 3.5 mph - N/A   Mostly Cloudy
2:35 PM 60.8 °F - 44.6 °F 55% 30.47 in 10.0 mi SSW 3.5 mph - N/A   Overcast
2:55 PM 57.2 °F - 41.0 °F 55% 30.48 in 10.0 mi WNW 8.1 mph - N/A   Overcast
3:15 PM 55.4 °F - 39.2 °F 54% 30.48 in 10.0 mi NW 6.9 mph - N/A   Overcast
3:35 PM 57.2 °F - 39.2 °F 51% 30.48 in 10.0 mi NNW 8.1 mph - N/A   Overcast
3:55 PM 57.2 °F - 39.2 °F 51% 30.47 in 10.0 mi North 8.1 mph - N/A   Overcast
4:15 PM 59.0 °F - 41.0 °F 51% 30.46 in 10.0 mi East 5.8 mph - N/A   Overcast
4:35 PM 57.2 °F - 42.8 °F 59% 30.46 in 10.0 mi East 4.6 mph - N/A   Overcast
4:55 PM 57.2 °F - 41.0 °F 55% 30.46 in 10.0 mi Calm Calm - N/A   Overcast
5:15 PM 57.2 °F - 42.8 °F 59% 30.46 in 10.0 mi NE 3.5 mph - N/A   Overcast
5:35 PM 57.2 °F - 39.2 °F 51% 30.46 in 10.0 mi Calm Calm - N/A   Overcast
5:55 PM 59.0 °F - 39.2 °F 48% 30.46 in 10.0 mi Calm Calm - N/A   Overcast
6:15 PM 57.2 °F - 42.8 °F 59% 30.46 in 10.0 mi Calm Calm - N/A   Overcast
6:35 PM 55.4 °F - 39.2 °F 54% 30.46 in 10.0 mi WNW 10.4 mph - N/A   Overcast
6:55 PM 55.4 °F - 37.4 °F 51% 30.47 in 10.0 mi WNW 9.2 mph - N/A   Overcast
7:15 PM 53.6 °F - 37.4 °F 54% 30.47 in 10.0 mi WNW 10.4 mph - N/A   Overcast
7:55 PM 51.8 °F - 41.0 °F 67% 30.46 in 10.0 mi West 11.5 mph - N/A   Overcast
8:15 PM 50.0 °F - 41.0 °F 71% 30.47 in 10.0 mi West 11.5 mph - N/A   Overcast
8:35 PM 48.2 °F - 42.8 °F 82% 30.47 in 10.0 mi West 9.2 mph - N/A   Overcast
8:55 PM 48.2 °F - 41.0 °F 76% 30.47 in 10.0 mi West 9.2 mph - N/A   Overcast
9:15 PM 48.2 °F - 41.0 °F 76% 30.47 in 10.0 mi West 9.2 mph - N/A   Overcast
9:35 PM 48.2 °F - 41.0 °F 76% 30.48 in 10.0 mi West 11.5 mph - N/A   Overcast
9:55 PM 48.2 °F - 41.0 °F 76% 30.48 in 10.0 mi West 8.1 mph - N/A   Overcast
10:15 PM 48.2 °F - 39.2 °F 71% 30.48 in 10.0 mi West 6.9 mph - N/A   Overcast
10:35 PM 46.4 °F 42.4 °F 41.0 °F 81% 30.47 in 10.0 mi West 8.1 mph - N/A   Overcast
10:55 PM 46.4 °F 42.4 °F 41.0 °F 81% 30.47 in 10.0 mi West 8.1 mph - N/A   Overcast
11:15 PM 46.4 °F 41.5 °F 41.0 °F 81% 30.47 in 10.0 mi West 10.4 mph - N/A   Overcast
11:35 PM 46.4 °F 41.9 °F 41.0 °F 81% 30.47 in 10.0 mi West 9.2 mph - N/A   Overcast
11:55 PM 46.4 °F 41.9 °F 41.0 °F 81% 30.46 in 10.0 mi WNW 9.2 mph - N/A   Overcast